NORTHEAST SUFFOLK  -  Special Weather Statement Special Weather Statement        NORTHERN NASSAU  -  Special Weather Statement Special Weather Statement        NORTHWEST SUFFOLK  -  Special Weather Statement Special Weather Statement        SOUTHEAST SUFFOLK  -  Special Weather Statement Special Weather Statement        SOUTHERN NASSAU  -  Special Weather Statement Special Weather Statement        SOUTHWEST SUFFOLK  -  Special Weather Statement Special Weather Statement      

Active alerts

Northern Nassau
  Details for Northern Nassau Special Weather Statement
Southern Nassau
  Details for Southern Nassau Special Weather Statement
Northwest Suffolk
  Details for Northwest Suffolk Special Weather Statement
Southwest Suffolk
  Details for Southwest Suffolk Special Weather Statement
Northeast Suffolk
  Details for Northeast Suffolk Special Weather Statement
Southeast Suffolk
  Details for Southeast Suffolk Special Weather Statement


WXM80 ListenWXM80 Stop

You find our weather info also at:

UK Metoffice

WeatherCloud

Weather Underground

Northeastern Weather Network

AWEKAS

Citizen Weather Observer Program (CWOP)

HAMweather, WeatherForYou, PWS Weather


Weather Underground History page Text

Daily Summary for December 9, 2017 Units:  Metric    English   Both
« Previous Day
Next Day »
Daily Weekly Monthly Yearly Custom
  High: Low: Average:
Temperature: 3.1 °C 0.3 °C 1.5 °C
Dew Point: 0.1 °C -5.4 °C -2.1 °C
Humidity: 96 % 56 % 79 %
Wind Speed: 14.5 km/h 0 km/h 3.7 km/h
Wind Gust: 24.1 km/h - -
Wind:- - East
Pressure: 1014.8 hPa 998.9 hPa -
Precipitation: 8.38 mm    
Historical Graphs
 
 
Tabular Data for December 9, 2017
Time Temperature Dew Point Pressure Wind Wind Speed Wind Gust Humidity Rainfall Rate (Hourly)
00:00 2.6 °C -5.3 °C 1014.1 hPa WNW 1 km/h 7.4 km/h 56 % 0 mm
00:05 2.6 °C -5.3 °C 1014.1 hPa WNW 2.3 km/h 5.6 km/h 56 % 0 mm
00:10 2.5 °C -5.4 °C 1014.1 hPa West 4.8 km/h 5.6 km/h 56 % 0 mm
00:15 2.6 °C -5.3 °C 1014.1 hPa West 2.1 km/h 5.6 km/h 56 % 0 mm
00:20 2.5 °C -5.4 °C 1014.1 hPa WNW 1.8 km/h 8 km/h 56 % 0 mm
00:25 2.5 °C -5.4 °C 1014.1 hPa WNW 3.9 km/h 11.1 km/h 56 % 0 mm
00:30 2.5 °C -5.4 °C 1014.4 hPa WNW 1.1 km/h 5.6 km/h 56 % 0 mm
00:35 2.5 °C -5.2 °C 1014.4 hPa West 1.4 km/h 3.7 km/h 57 % 0 mm
00:40 2.5 °C -5.2 °C 1014.8 hPa WNW 2.4 km/h 5.6 km/h 57 % 0 mm
00:45 2.5 °C -5.2 °C 1014.8 hPa NW 2.7 km/h 5.6 km/h 57 % 0 mm
00:50 2.5 °C -4.9 °C 1014.8 hPa WNW 2.4 km/h 5.6 km/h 58 % 0 mm
00:55 2.5 °C -4.9 °C 1014.8 hPa WNW 0.5 km/h 1.9 km/h 58 % 0 mm
01:00 2.5 °C -4.9 °C 1014.8 hPa WSW 4.5 km/h 7.4 km/h 58 % 0 mm
01:05 2.5 °C -5.2 °C 1014.8 hPa WSW 2.3 km/h 7.4 km/h 57 % 0 mm
01:10 2.5 °C -5.4 °C 1014.8 hPa West 0.8 km/h 3.7 km/h 56 % 0 mm
01:15 2.4 °C -5.2 °C 1014.8 hPa Calm   1.9 km/h 57 % 0 mm
01:20 2.4 °C -5.4 °C 1014.4 hPa SW 0.6 km/h 5.6 km/h 56 % 0 mm
01:25 2.4 °C -5.4 °C 1014.4 hPa SW 0.6 km/h 1.9 km/h 56 % 0 mm
01:26 2.4 °C -5.2 °C 1014.4 hPa Calm   1.9 km/h 57 % 0 mm
01:36 2.4 °C -5 °C 1014.4 hPa SW 0.6 km/h 3.7 km/h 58 % 0 mm
01:41 2.4 °C -4.8 °C 1014.4 hPa Calm     59 % 0 mm
01:46 2.4 °C -5 °C 1014.4 hPa Calm     58 % 0 mm
01:51 2.4 °C -5.1 °C 1014.1 hPa Calm     58 % 0 mm
01:52 2.4 °C -5.1 °C 1014.4 hPa Calm     58 % 0 mm
01:57 2.4 °C -5.1 °C 1014.4 hPa Calm     58 % 0 mm
02:02 2.4 °C -5.1 °C 1014.4 hPa Calm     58 % 0 mm
02:07 2.3 °C -5.1 °C 1014.8 hPa Calm   1.9 km/h 58 % 0 mm
02:12 2.3 °C -4.9 °C 1014.4 hPa Calm     59 % 0 mm
02:22 2.3 °C -4.9 °C 1014.4 hPa Calm     59 % 0 mm
02:27 2.2 °C -4.8 °C 1014.1 hPa Calm     60 % 0 mm
02:32 2.2 °C -4.8 °C 1014.8 hPa SW 1 km/h 1.9 km/h 60 % 0 mm
02:37 2.2 °C -5 °C 1014.4 hPa Calm   1.9 km/h 59 % 0 mm
02:42 2.2 °C -5 °C 1014.1 hPa Calm     59 % 0 mm
02:47 2.2 °C -5 °C 1014.1 hPa Calm     59 % 0 mm
02:52 2.2 °C -5 °C 1014.1 hPa Calm     59 % 0 mm
02:57 2.2 °C -5 °C 1014.4 hPa Calm   1.9 km/h 59 % 0 mm
03:03 2.2 °C -5 °C 1014.4 hPa Calm     59 % 0 mm
03:08 2.2 °C -4.8 °C 1014.4 hPa Calm     60 % 0 mm
03:13 2.2 °C -4.8 °C 1014.1 hPa Calm     60 % 0 mm
03:18 2.1 °C -4.8 °C 1014.1 hPa Calm     60 % 0 mm
03:23 2.1 °C -4.6 °C 1014.1 hPa Calm     61 % 0 mm
03:28 2.1 °C -4.6 °C 1014.4 hPa Calm     61 % 0 mm
03:33 2.1 °C -4.7 °C 1014.4 hPa Calm     61 % 0 mm
03:38 2.1 °C -4.9 °C 1014.4 hPa Calm     60 % 0 mm
03:43 2.1 °C -4.9 °C 1014.4 hPa Calm     60 % 0 mm
03:48 2.1 °C -4.9 °C 1014.1 hPa Calm     60 % 0 mm
03:53 2.1 °C -4.7 °C 1014.4 hPa Calm     61 % 0 mm
04:03 2 °C -4.9 °C 1014.1 hPa Calm     60 % 0 mm
04:04 2 °C -4.9 °C 1014.1 hPa Calm     60 % 0 mm
04:09 2 °C -4.9 °C 1014.8 hPa Calm     60 % 0 mm
04:14 2 °C -4.9 °C 1014.1 hPa Calm     60 % 0 mm
04:19 2 °C -4.9 °C 1014.4 hPa Calm     60 % 0 mm
04:24 2 °C -4.9 °C 1014.4 hPa Calm   1.9 km/h 60 % 0 mm
04:29 2 °C -4.7 °C 1014.4 hPa Calm     61 % 0 mm
04:34 2 °C -4.7 °C 1014.4 hPa Calm     61 % 0 mm
04:39 2 °C -4.7 °C 1014.4 hPa Calm     61 % 0 mm
04:44 2 °C -4.7 °C 1014.8 hPa SW 2.1 km/h 5.6 km/h 61 % 0 mm
04:49 2 °C -4.7 °C 1014.8 hPa SW 0.8 km/h 1.9 km/h 61 % 0 mm
04:54 2 °C -4.7 °C 1014.4 hPa Calm     61 % 0 mm
04:59 2 °C -4.7 °C 1014.1 hPa Calm     61 % 0 mm
05:04 2.1 °C -4.7 °C 1014.4 hPa Calm     61 % 0 mm
05:09 2.1 °C -4.7 °C 1014.4 hPa Calm     61 % 0 mm
05:14 2.1 °C -4.5 °C 1014.4 hPa Calm     62 % 0 mm
05:19 2.1 °C -4.5 °C 1014.1 hPa Calm     62 % 0 mm
05:24 2.1 °C -4.5 °C 1014.1 hPa Calm     62 % 0 mm
05:29 2.1 °C -4.4 °C 1014.1 hPa SW 0.2 km/h 1.9 km/h 62 % 0 mm
05:34 2.1 °C -4.4 °C 1013.8 hPa Calm     62 % 0 mm
05:39 2.1 °C -4.4 °C 1014.1 hPa Calm     62 % 0 mm
05:44 2.1 °C -4.4 °C 1013.8 hPa Calm     62 % 0 mm
05:49 2.1 °C -4.4 °C 1013.8 hPa SW 0.3 km/h 1.9 km/h 62 % 0 mm
05:54 2.1 °C -4.4 °C 1013.8 hPa Calm     62 % 0 mm
05:59 2.1 °C -4.4 °C 1013.4 hPa Calm     62 % 0 mm
06:04 2.1 °C -4.4 °C 1013.4 hPa Calm     62 % 0 mm
06:09 2.1 °C -4.2 °C 1013.8 hPa Calm     63 % 0 mm
06:14 2.1 °C -4.2 °C 1013.8 hPa Calm     63 % 0 mm
06:19 2.1 °C -4.3 °C 1013.8 hPa Calm     63 % 0 mm
06:24 2.1 °C -4.3 °C 1013.8 hPa Calm     63 % 0 mm
06:30 2.1 °C -4.3 °C 1014.1 hPa Calm     63 % 0 mm
06:35 2.1 °C -4.3 °C 1013.4 hPa NNW 1.9 km/h 3.2 km/h 63 % 0 mm
06:40 2.1 °C -4.1 °C 1013.8 hPa NNE 3.1 km/h 6.4 km/h 64 % 0 mm
06:45 2.1 °C -4 °C 1013.8 hPa North 3.7 km/h 5.6 km/h 64 % 0 mm
06:50 2.2 °C -3.9 °C 1014.1 hPa NNW 4 km/h 7.4 km/h 64 % 0 mm
06:52 2.2 °C -3.9 °C 1014.1 hPa NNW 2.1 km/h 3.2 km/h 64 % 0 mm
06:57 2.2 °C -3.9 °C 1014.4 hPa NNE 4 km/h 4 km/h 64 % 0 mm
07:02 2.3 °C -3.8 °C 1014.1 hPa NNE 1 km/h 5.6 km/h 64 % 0 mm
07:08 2.3 °C -3.6 °C 1014.1 hPa NNE 5.5 km/h 5.6 km/h 65 % 0 mm
07:13 2.3 °C -3.8 °C 1014.4 hPa NNE 3.2 km/h 7.4 km/h 64 % 0 mm
07:18 2.4 °C -3.7 °C 1014.4 hPa North 2.9 km/h 7.4 km/h 64 % 0 mm
07:27 2.4 °C -3.9 °C 1014.1 hPa NNE 6.9 km/h 9.7 km/h 63 % 0 mm
07:33 2.5 °C -3.6 °C 1014.4 hPa North 1.9 km/h 7.4 km/h 64 % 0 mm
07:38 2.5 °C -3.6 °C 1014.4 hPa North 4.2 km/h 7.4 km/h 64 % 0 mm
07:48 2.6 °C -3.4 °C 1014.1 hPa NE 6.4 km/h 9.3 km/h 65 % 0 mm
07:53 2.6 °C -3.6 °C 1014.1 hPa NNE 4.7 km/h 5.6 km/h 64 % 0 mm
07:58 2.6 °C -3.6 °C 1014.1 hPa ENE 2.1 km/h 5.6 km/h 64 % 0 mm
08:03 2.6 °C -3.5 °C 1014.1 hPa NE 5.6 km/h 9.3 km/h 64 % 0 mm
08:08 2.7 °C -3.3 °C 1014.1 hPa North 4.7 km/h 6.4 km/h 65 % 0 mm
08:13 2.7 °C -3.2 °C 1014.1 hPa NNE 7.2 km/h 11.1 km/h 65 % 0 mm
08:18 2.7 °C -3.4 °C 1013.8 hPa NE 8.2 km/h 11.3 km/h 64 % 0 mm
08:23 2.8 °C -3.2 °C 1013.4 hPa NNE 5.5 km/h 7.4 km/h 65 % 0 mm
08:33 2.8 °C -3.1 °C 1013.4 hPa NNE 2.4 km/h 7.4 km/h 65 % 0 mm
08:38 2.9 °C -3.1 °C 1013.4 hPa NNW 1.8 km/h 5.6 km/h 65 % 0 mm
08:43 2.9 °C -3.4 °C 1013.1 hPa NNE 2.6 km/h 7.4 km/h 63 % 0 mm
08:48 2.9 °C -3.3 °C 1013.4 hPa NE 3.9 km/h 6.4 km/h 64 % 0 mm
08:53 2.9 °C -3.2 °C 1013.1 hPa NE 2.3 km/h 5.6 km/h 64 % 0 mm
08:58 2.9 °C -3.2 °C 1012.8 hPa NNE 4.3 km/h 8 km/h 64 % 0 mm
09:03 3 °C -3.4 °C 1012.8 hPa ENE 8 km/h 8 km/h 63 % 0 mm
09:08 3 °C -3.4 °C 1012.8 hPa NNE 7.9 km/h 14.8 km/h 63 % 0 mm
09:13 3.1 °C -3.1 °C 1013.1 hPa NNE 3.9 km/h 7.4 km/h 64 % 0 mm
09:19 3.1 °C -3.3 °C 1013.1 hPa NNE 6.8 km/h 13 km/h 63 % 0 mm
09:24 3.1 °C -3.3 °C 1013.1 hPa NE 2.7 km/h 9.3 km/h 63 % 0 mm
09:29 3.1 °C -3.1 °C 1013.4 hPa NNE 8 km/h 13 km/h 64 % 0 mm
09:34 3.1 °C -3.3 °C 1013.4 hPa North 7.7 km/h 13 km/h 63 % 0 mm
09:39 3.1 °C -3.1 °C 1013.4 hPa NE 6 km/h 11.1 km/h 64 % 0 mm
09:44 3.1 °C -3.1 °C 1013.4 hPa North 9 km/h 14.8 km/h 64 % 0 mm
09:49 3.1 °C -2.9 °C 1013.4 hPa NE 6.3 km/h 9.7 km/h 65 % 0 mm
09:54 3.1 °C -2.9 °C 1013.4 hPa NNE 5.6 km/h 9.3 km/h 65 % 0 mm
09:59 3 °C -2.7 °C 1013.4 hPa North 7.9 km/h 11.3 km/h 66 % 0 mm
10:04 3 °C -2.6 °C 1013.4 hPa NNE 7.4 km/h 11.1 km/h 67 % 0 mm
10:09 2.9 °C -2.4 °C 1013.1 hPa NNW 6.1 km/h 14.8 km/h 68 % 0 mm
10:14 2.8 °C -2.3 °C 1013.1 hPa NE 10.5 km/h 18.5 km/h 69 % 0 mm
10:19 2.7 °C -2.2 °C 1013.1 hPa North 5.1 km/h 8 km/h 70 % 0 mm
10:24 2.6 °C -1.9 °C 1013.1 hPa NNE 7.7 km/h 11.3 km/h 72 % 0 mm
10:29 2.4 °C -1.9 °C 1013.1 hPa North 5.6 km/h 6.4 km/h 73 % 0 mm
10:34 2.3 °C -1.9 °C 1013.4 hPa NE 5.3 km/h 9.3 km/h 74 % 0 mm
10:39 2.2 °C -1.6 °C 1013.4 hPa NNE 2.3 km/h 5.6 km/h 76 % 0 mm
10:44 2.1 °C -1.6 °C 1013.4 hPa NNE 3.2 km/h 9.3 km/h 77 % 0 mm
10:49 1.8 °C -1.6 °C 1013.4 hPa NE 7.2 km/h 9.7 km/h 78 % 0 mm
10:54 1.7 °C -1.4 °C 1013.1 hPa NNE 3.5 km/h 5.6 km/h 80 % 0 mm
10:59 1.6 °C -1.2 °C 1013.1 hPa NNE 6.6 km/h 9.3 km/h 82 % 0 mm
11:04 1.4 °C -1.3 °C 1012.8 hPa NNE 2.1 km/h 5.6 km/h 82 % 0 mm
11:09 1.3 °C -1.3 °C 1012.4 hPa North 5.6 km/h 7.4 km/h 83 % 0 mm
11:14 1.2 °C -1.2 °C 1012.4 hPa NNE 5.5 km/h 7.4 km/h 84 % 0 mm
11:19 1.1 °C -1.1 °C 1012.4 hPa NNE 7.9 km/h 11.1 km/h 85 % 0 mm
11:24 1.1 °C -1 °C 1012.1 hPa NNE 0.3 km/h 3.7 km/h 86 % 0.25 mm
11:29 1 °C -0.9 °C 1012.1 hPa NNE 0.5 km/h 5.6 km/h 87 % 0.25 mm
11:34 1 °C -0.9 °C 1012.1 hPa NNE 2.4 km/h 4.8 km/h 87 % 0.51 mm
11:39 0.9 °C -0.8 °C 1012.1 hPa ENE 2.7 km/h 5.6 km/h 88 % 0.76 mm
11:44 0.8 °C -0.8 °C 1011.7 hPa ENE 1 km/h 3.7 km/h 89 % 0.76 mm
11:49 0.8 °C -0.8 °C 1011.7 hPa ENE 0.2 km/h   89 % 1.02 mm
11:55 0.7 °C -0.9 °C 1011.4 hPa ENE 1 km/h 3.7 km/h 89 % 1.02 mm
12:00 0.7 °C -0.8 °C 1011.4 hPa ENE 0.2 km/h 3.7 km/h 90 % 1.02 mm
12:05 0.6 °C -0.8 °C 1011.1 hPa North 2.1 km/h 5.6 km/h 90 % 1.02 mm
12:10 0.7 °C -0.6 °C 1011.1 hPa North 1.8 km/h 5.6 km/h 91 % 1.02 mm
12:15 0.7 °C -0.6 °C 1010.7 hPa North 0.2 km/h 3.7 km/h 91 % 1.27 mm
12:20 0.7 °C -0.6 °C 1010.4 hPa ENE 0.8 km/h 5.6 km/h 91 % 1.02 mm
12:25 0.8 °C -0.5 °C 1010.4 hPa NNE 2.4 km/h 5.6 km/h 91 % 1.02 mm
12:30 0.8 °C -0.3 °C 1010 hPa NNE 1.4 km/h 3.7 km/h 92 % 1.02 mm
12:35 0.8 °C -0.3 °C 1010.4 hPa NNE 5.5 km/h 11.1 km/h 92 % 1.02 mm
12:40 0.8 °C -0.3 °C 1010 hPa ENE 2.1 km/h 12.9 km/h 92 % 0.76 mm
12:45 0.8 °C -0.3 °C 1010 hPa NE 7.9 km/h 11.1 km/h 92 % 0.76 mm
12:50 0.8 °C -0.3 °C 1010 hPa NNE 3.9 km/h 9.7 km/h 92 % 0.51 mm
13:00 0.9 °C -0.3 °C 1009.7 hPa ENE 3.4 km/h 5.6 km/h 92 % 0.51 mm
13:05 0.9 °C -0.1 °C 1009.7 hPa ENE 3.7 km/h 7.4 km/h 93 % 0.76 mm
13:10 0.9 °C -0.1 °C 1009.7 hPa NNE 4 km/h 5.6 km/h 93 % 0.76 mm
13:15 0.9 °C -0.1 °C 1009.7 hPa NNE 3.7 km/h 5.6 km/h 93 % 0.51 mm
13:20 0.9 °C -0.1 °C 1009 hPa NNE 6.9 km/h 13 km/h 93 % 0.51 mm
13:25 0.9 °C -0.1 °C 1009 hPa NNE 7.6 km/h 9.7 km/h 93 % 0.51 mm
13:30 0.9 °C -0.1 °C 1009 hPa NNE 9 km/h 12.9 km/h 93 % 0.76 mm
13:35 0.9 °C -0.1 °C 1009 hPa NNE 7.4 km/h 14.5 km/h 93 % 0.51 mm
13:40 0.8 °C -0.2 °C 1009 hPa North 11.7 km/h 14.8 km/h 93 % 0.51 mm
13:45 0.8 °C -0.2 °C 1009 hPa NNE 8.7 km/h 14.8 km/h 93 % 0.76 mm
13:50 0.8 °C -0.2 °C 1008.7 hPa NNE 5.1 km/h 9.7 km/h 93 % 0.76 mm
13:55 0.8 °C -0.2 °C 1008.7 hPa NNE 9.3 km/h 18.5 km/h 93 % 0.76 mm
14:00 0.8 °C -0.2 °C 1008.4 hPa NE 7.1 km/h 9.3 km/h 93 % 1.02 mm
14:05 0.8 °C -0.1 °C 1008 hPa NE 4.7 km/h 9.7 km/h 94 % 0.76 mm
14:15 0.8 °C -0.1 °C 1008 hPa NNE 9.7 km/h 16.1 km/h 94 % 0 mm
14:20 0.8 °C -0.1 °C 1008 hPa NE 4.8 km/h 14.5 km/h 94 % 0.25 mm
14:30 0.8 °C -0.1 °C 1008 hPa NE 4.7 km/h 13 km/h 94 % 0.76 mm
14:35 0.8 °C -0.1 °C 1008.4 hPa NNE 6.1 km/h 9.3 km/h 94 % 0.76 mm
14:40 0.8 °C -0.1 °C 1008 hPa NE 9.7 km/h 14.5 km/h 94 % 0 mm
14:51 0.8 °C 0 °C 1008 hPa NE 8 km/h 19.3 km/h 94 % 0 mm
14:56 0.8 °C 0 °C 1007.7 hPa NE 4.8 km/h 19.3 km/h 94 % 0 mm
15:01 0.8 °C 0 °C 1007.7 hPa NE 6.8 km/h 13 km/h 94 % 0.25 mm
15:06 0.8 °C 0 °C 1007.3 hPa NE 9.7 km/h 20.9 km/h 94 % 0 mm
15:21 0.8 °C -0.1 °C 1007.7 hPa NNE 4.8 km/h 16.1 km/h 94 % 0 mm
15:30 0.8 °C -0.1 °C 1007.3 hPa NNE 8 km/h 19.3 km/h 94 % 0 mm
15:40 0.8 °C -0.1 °C 1007.3 hPa NNE 11.3 km/h 20.9 km/h 94 % 0 mm
15:41 0.8 °C -0.1 °C 1007.3 hPa NNE 7.7 km/h 13 km/h 94 % 0.76 mm
15:46 0.8 °C -0.1 °C 1007.3 hPa NE 10.9 km/h 16.7 km/h 94 % 0.76 mm
15:51 0.8 °C 0.1 °C 1007.3 hPa NNE 9.5 km/h 19.3 km/h 95 % 0.76 mm
15:56 0.8 °C 0.1 °C 1007 hPa NNE 11.9 km/h 18.5 km/h 95 % 0.76 mm
16:01 0.8 °C 0.1 °C 1007 hPa ENE 12.6 km/h 16.7 km/h 95 % 0.76 mm
16:06 0.8 °C 0.1 °C 1006.7 hPa NE 8.9 km/h 18.5 km/h 95 % 0.76 mm
16:11 0.8 °C 0.1 °C 1007 hPa NNE 8.9 km/h 16.1 km/h 95 % 0.76 mm
16:16 0.8 °C 0.1 °C 1006.7 hPa NNE 8.9 km/h 13 km/h 95 % 0.76 mm
16:21 0.8 °C 0.1 °C 1006.7 hPa NE 14.5 km/h 18.5 km/h 95 % 1.02 mm
16:26 0.8 °C 0.1 °C 1006.7 hPa NE 9 km/h 24.1 km/h 95 % 0.76 mm
16:31 0.7 °C 0 °C 1006.7 hPa NE 14.3 km/h 19.3 km/h 95 % 0.76 mm
16:36 0.7 °C 0 °C 1006.7 hPa NNE 10.3 km/h 24.1 km/h 95 % 0.76 mm
16:46 0.7 °C 0 °C 1006.7 hPa NNE 14.3 km/h 18.5 km/h 95 % 0.76 mm
16:51 0.7 °C 0 °C 1006.7 hPa North 9.8 km/h 18.5 km/h 95 % 0.76 mm
16:56 0.7 °C 0 °C 1006.7 hPa North 11.6 km/h 18.5 km/h 95 % 1.02 mm
17:02 0.7 °C 0 °C 1006.7 hPa NNE 12.6 km/h 18.5 km/h 95 % 1.02 mm
17:07 0.7 °C 0 °C 1006.7 hPa NNE 11.7 km/h 16.7 km/h 95 % 0.76 mm
17:12 0.7 °C 0 °C 1006.7 hPa North 12.9 km/h 19.3 km/h 95 % 1.02 mm
17:17 0.7 °C -0.1 °C 1006.3 hPa NNE 10.3 km/h 20.4 km/h 95 % 1.02 mm
17:22 0.7 °C -0.1 °C 1006 hPa North 10 km/h 18.5 km/h 95 % 0.76 mm
17:27 0.7 °C -0.1 °C 1006 hPa NNE 8.9 km/h 13 km/h 95 % 0.76 mm
17:32 0.7 °C -0.1 °C 1006.3 hPa North 9.3 km/h 16.7 km/h 95 % 0.76 mm
17:47 0.6 °C -0.1 °C 1006.3 hPa North 11.4 km/h 16.7 km/h 95 % 0.76 mm
17:52 0.6 °C -0.1 °C 1006 hPa NNE 6 km/h 8 km/h 95 % 0.76 mm
17:57 0.6 °C -0.2 °C 1006 hPa North 13.4 km/h 18.5 km/h 95 % 0.51 mm
18:07 0.6 °C -0.2 °C 1006.7 hPa NNE 6 km/h 14.8 km/h 95 % 0.76 mm
18:17 0.6 °C -0.2 °C 1006 hPa NE 10.6 km/h 18.5 km/h 95 % 0.76 mm
18:22 0.6 °C 0 °C 1006.3 hPa NNE 8 km/h 12.9 km/h 96 % 0.76 mm
18:32 0.5 °C -0.2 °C 1006 hPa North 10 km/h 13 km/h 95 % 1.02 mm
18:37 0.5 °C -0.2 °C 1006 hPa NNE 13.2 km/h 17.7 km/h 95 % 0.76 mm
18:42 0.5 °C -0.1 °C 1005.6 hPa North 10.8 km/h 16.7 km/h 96 % 0.76 mm
18:48 0.5 °C -0.1 °C 1005.6 hPa NNE 8.7 km/h 16.7 km/h 96 % 0.76 mm
18:53 0.5 °C -0.1 °C 1005.6 hPa NNE 8.2 km/h 13 km/h 96 % 0.76 mm
18:58 0.5 °C -0.1 °C 1006 hPa North 8.7 km/h 16.7 km/h 96 % 1.02 mm
19:03 0.5 °C -0.1 °C 1006 hPa NNE 11.3 km/h 14.8 km/h 96 % 0.76 mm
19:08 0.5 °C -0.1 °C 1006 hPa North 10.5 km/h 16.1 km/h 96 % 0.76 mm
19:13 0.5 °C -0.1 °C 1006 hPa NNE 4.3 km/h 7.4 km/h 96 % 0.76 mm
19:18 0.5 °C -0.1 °C 1006 hPa NNE 9.8 km/h 16.7 km/h 96 % 0.51 mm
19:23 0.5 °C -0.1 °C 1006 hPa NNE 8.4 km/h 11.1 km/h 96 % 0.76 mm
19:28 0.5 °C -0.1 °C 1005.6 hPa NE 8.9 km/h 11.3 km/h 96 % 0.76 mm
19:33 0.4 °C -0.1 °C 1005.6 hPa NNE 10.1 km/h 13 km/h 96 % 0.51 mm
19:38 0.4 °C -0.1 °C 1005.6 hPa North 8.9 km/h 16.1 km/h 96 % 0.51 mm
19:43 0.4 °C -0.1 °C 1005.6 hPa NNE 7.2 km/h 9.3 km/h 96 % 0.51 mm
19:48 0.4 °C -0.1 °C 1006 hPa Calm   5.6 km/h 96 % 0.51 mm
19:53 0.4 °C -0.1 °C 1006.3 hPa Calm     96 % 0.51 mm
19:58 0.4 °C -0.1 °C 1006.3 hPa Calm     96 % 0.51 mm
20:03 0.4 °C -0.1 °C 1006.3 hPa Calm     96 % 0.51 mm
20:08 0.4 °C -0.1 °C 1006.3 hPa Calm     96 % 0.51 mm
20:13 0.4 °C -0.1 °C 1006.3 hPa Calm     96 % 0.51 mm
20:18 0.4 °C -0.1 °C 1006.3 hPa Calm     96 % 0.76 mm
20:23 0.4 °C -0.1 °C 1006 hPa Calm     96 % 0.51 mm
20:28 0.4 °C -0.1 °C 1006 hPa Calm     96 % 0.51 mm
20:33 0.4 °C -0.1 °C 1006 hPa Calm     96 % 0.51 mm
20:38 0.4 °C -0.1 °C 1006 hPa Calm     96 % 0.76 mm
20:43 0.4 °C -0.1 °C 1006 hPa Calm     96 % 0.76 mm
20:49 0.4 °C -0.1 °C 1006 hPa Calm     96 % 0.76 mm
20:54 0.4 °C -0.1 °C 1006.3 hPa Calm     96 % 0.51 mm
20:59 0.4 °C -0.1 °C 1006 hPa Calm     96 % 0.76 mm
21:04 0.4 °C -0.1 °C 1005.6 hPa Calm     96 % 0.76 mm
21:09 0.4 °C -0.1 °C 1005.6 hPa Calm     96 % 0.76 mm
21:14 0.4 °C -0.1 °C 1006 hPa Calm     96 % 1.02 mm
21:24 0.4 °C -0.1 °C 1006 hPa Calm     96 % 0.76 mm
21:29 0.4 °C -0.1 °C 1006 hPa Calm     96 % 0.76 mm
21:34 0.4 °C -0.1 °C 1006 hPa Calm     96 % 0.76 mm
21:39 0.4 °C -0.1 °C 1005.6 hPa Calm     96 % 0.51 mm
21:44 0.4 °C -0.1 °C 1006 hPa Calm     96 % 0.51 mm
21:49 0.4 °C -0.1 °C 1006 hPa Calm     96 % 0.76 mm
21:54 0.4 °C -0.2 °C 1006 hPa Calm     96 % 0.76 mm
22:04 0.4 °C -0.1 °C 1006.3 hPa Calm     96 % 0.51 mm
22:09 0.4 °C -0.1 °C 1006.3 hPa Calm     96 % 0.51 mm
22:14 0.4 °C -0.1 °C 1006.3 hPa Calm     96 % 0.25 mm
22:18 0.4 °C -0.1 °C 998.9 hPa Calm     96 % 0.25 mm
22:19 0.4 °C -0.1 °C 1006 hPa Calm     96 % 0.25 mm
22:20 0.4 °C -0.1 °C 998.9 hPa Calm     96 % 0.25 mm
22:24 0.4 °C -0.1 °C 998.9 hPa Calm     96 % 0.25 mm
22:29 0.4 °C -0.1 °C 1006 hPa Calm     96 % 0.51 mm
22:34 0.4 °C -0.1 °C 1006 hPa Calm     96 % 0.51 mm
22:40 0.4 °C -0.1 °C 1006 hPa Calm     96 % 0.51 mm
22:45 0.4 °C -0.1 °C 1006 hPa Calm     96 % 0.51 mm
22:55 0.4 °C -0.1 °C 1005.6 hPa Calm     96 % 0.51 mm
23:00 0.4 °C -0.1 °C 1006 hPa Calm     96 % 0.51 mm
23:05 0.4 °C -0.1 °C 1006 hPa Calm     96 % 0.51 mm
23:10 0.4 °C -0.2 °C 1006 hPa Calm     96 % 0.51 mm
23:20 0.4 °C -0.2 °C 1006 hPa Calm     96 % 0.51 mm
23:30 0.3 °C -0.2 °C 1006 hPa Calm     96 % 0.25 mm
23:35 0.4 °C -0.2 °C 1006 hPa Calm     96 % 0.25 mm
23:40 0.4 °C -0.2 °C 1006 hPa Calm     96 % 0.25 mm
23:45 0.4 °C -0.2 °C 1006 hPa Calm     96 % 0.25 mm
23:55 0.4 °C -0.1 °C 1006 hPa Calm     96 % 0 mm
Crab Meadow Weather
Compliments of Weather Underground - 2.75 mb

Script developed by  Jim McMurry - jmcmurry@mwt.net Adapted for the template by  Wim van der Kuil - Leuven-Template.eu

Astronomy: One year on Pluto is equal to 248 Earth years.